Lynchburg, VA

3:55 AM EDT on July 23, 2017 (GMT -0400)
Lynchburg Regional-Glenn

Weather History for KLYH - December, 2012

Change the Weather History Date:

Monday, December 17, 2012

  Actual Average Record
Temperature  
Mean Temperature 49 °F 37 °F  
Max Temperature 54 °F 47 °F 76 °F (1924)
Min Temperature 44 °F 27 °F 3 °F (1989)
Degree Days  
Heating Degree Days 16 28  
Month to date heating degree days 297 443  
Since 1 July heating degree days 1266 1337  
Cooling Degree Days 0 0  
Month to date cooling degree days 0 0  
Year to date cooling degree days 1244 1032  
Moisture  
Dew Point 49 °F    
Average Humidity 97    
Maximum Humidity 100    
Minimum Humidity 93    
Precipitation  
Precipitation 0.03 in 0.10 in 0.85 in (2015)
Month to date precipitation 0.28 1.89  
Year to date precipitation 27.47 40.22  
Snow  
Snow 0.00 in - - ()
Month to date snowfall 0.0  
Since 1 July snowfall 0.0  
Snow Depth 0.00 in    
Sea Level Pressure  
Sea Level Pressure 29.77 in    
Wind  
Wind Speed 4 mph (SSW)    
Max Wind Speed 14 mph    
Max Gust Speed 15 mph    
Visibility 4 miles    
Events Fog , Rain    
T = Trace of Precipitation, MM = Missing Value Source: NWS Daily Summary

Daily Weather History Graph

Daily Weather History Graph

Search for Another Location

Airport or City:

Trip Planner

Search our weather history database for the weather conditions in past years. The results will help you decide how hot, cold, wet, or windy it might be!

Date:

Astronomy

Dec. 17, 2012 Rise Set
Actual Time 7:25 AM EST 5:01 PM EST
Civil Twilight 6:56 AM EST 5:30 PM EST
Nautical Twilight 6:23 AM EST 6:03 PM EST
Astronomical Twilight 5:51 AM EST 6:34 PM EST
Moon 10:38 AM EST (12/17) 10:14 PM EST (12/17)
Length of Visible Light 10h 34m
Length of Day
9h 35m
Waxing Crescent, 24% of the Moon is Illuminated
Dec 17
Waxing Crescent
Dec 20
First Quarter
Dec 28
Full
Jan 4
Last Quarter
Jan 11
New

Hourly Weather History & Observations

Time (EST) Temp. Windchill Dew Point Humidity Pressure Visibility Wind Dir Wind Speed Gust Speed Precip Events Conditions
12:54 AM 48.0 °F - 48.0 °F 100% 29.86 in 7.0 mi SSW 4.6 mph - 0.01 in Rain Light Rain
1:54 AM 48.9 °F - 48.0 °F 97% 29.83 in 8.0 mi SW 3.5 mph - 0.00 in   Mostly Cloudy
2:54 AM 48.0 °F - 48.0 °F 100% 29.83 in 5.0 mi SW 3.5 mph - N/A   Clear
3:49 AM 46.4 °F 45.2 °F 46.4 °F 100% 29.81 in 1.8 mi South 3.5 mph - N/A   Clear
3:51 AM 46.4 °F 44.3 °F 46.4 °F 100% 29.81 in 1.0 mi SSE 4.6 mph - N/A   Mist
3:54 AM 46.9 °F - 46.0 °F 97% 29.82 in 0.8 mi SSW 3.5 mph - N/A   Mist
4:00 AM 48.2 °F - 46.4 °F 93% 29.81 in 1.0 mi SSW 3.5 mph - N/A   Clear
4:15 AM 48.2 °F - 48.2 °F 100% 29.81 in 2.0 mi South 3.5 mph - N/A   Scattered Clouds
4:22 AM 48.2 °F - 48.2 °F 100% 29.81 in 3.0 mi SSW 3.5 mph - N/A   Mostly Cloudy
4:29 AM 48.2 °F - 48.2 °F 100% 29.81 in 1.8 mi SW 3.5 mph - N/A   Mostly Cloudy
4:37 AM 48.2 °F - 48.2 °F 100% 29.81 in 3.0 mi SW 3.5 mph - N/A   Mostly Cloudy
4:47 AM 48.2 °F - 48.2 °F 100% 29.81 in 2.5 mi Calm Calm - N/A   Scattered Clouds
4:52 AM 46.4 °F - 46.4 °F 100% 29.81 in 1.2 mi Calm Calm - N/A   Scattered Clouds
4:54 AM 46.9 °F - 46.9 °F 100% 29.81 in 1.0 mi Calm Calm - N/A   Scattered Clouds
4:59 AM 46.4 °F - 46.4 °F 100% 29.80 in 0.5 mi Calm Calm - N/A Fog Fog
5:09 AM 46.4 °F - 46.4 °F 100% 29.79 in 0.2 mi Calm Calm - N/A Fog Fog
5:27 AM 46.4 °F - 46.4 °F 100% 29.80 in 0.5 mi Calm Calm - N/A Fog Fog
5:35 AM 46.4 °F - 46.4 °F 100% 29.80 in 0.5 mi Calm Calm - N/A Fog Fog
5:45 AM 44.6 °F - 44.6 °F 100% 29.80 in 0.2 mi Calm Calm - N/A Fog Fog
5:54 AM 46.0 °F - 46.0 °F 100% 29.81 in 0.5 mi Calm Calm - N/A Fog Fog
6:05 AM 44.6 °F - 44.6 °F 100% 29.80 in 0.2 mi Calm Calm - N/A Fog Fog
6:12 AM 46.4 °F 45.2 °F 46.4 °F 100% 29.81 in 0.2 mi SW 3.5 mph - N/A Fog Fog
6:22 AM 48.2 °F - 48.2 °F 100% 29.81 in 0.2 mi SW 4.6 mph - N/A Fog Fog
6:41 AM 46.4 °F 45.2 °F 46.4 °F 100% 29.82 in 0.2 mi SW 3.5 mph - N/A Fog Fog
6:52 AM 46.4 °F - 46.4 °F 100% 29.82 in 0.5 mi Calm Calm - N/A Fog Fog
6:54 AM 46.4 °F - 46.4 °F 100% 29.83 in 0.5 mi Calm Calm - N/A Fog Fog
6:58 AM 46.4 °F - 46.4 °F 100% 29.83 in 0.2 mi Calm Calm - N/A Fog Fog
7:54 AM 44.1 °F - 44.1 °F 100% 29.83 in 0.2 mi Calm Calm - N/A Fog Fog
8:06 AM 44.6 °F - 44.6 °F 100% 29.83 in 0.2 mi Calm Calm - N/A Fog Fog
8:54 AM 46.9 °F - 46.9 °F 100% 29.84 in 0.2 mi SSW 3.5 mph - N/A Fog Fog
9:00 AM 46.4 °F 45.2 °F 46.4 °F 100% 29.84 in 0.5 mi SW 3.5 mph - N/A Fog Fog
9:19 AM 48.2 °F - 48.2 °F 100% 29.84 in 1.5 mi SSW 3.5 mph - N/A   Overcast
9:27 AM 48.2 °F - 48.2 °F 100% 29.84 in 2.5 mi SSW 3.5 mph - N/A   Overcast
9:38 AM 48.2 °F - 48.2 °F 100% 29.84 in 3.0 mi SSW 3.5 mph - N/A   Overcast
9:54 AM 50.0 °F - 50.0 °F 100% 29.84 in 8.0 mi SSW 4.6 mph - N/A   Scattered Clouds
10:54 AM 51.1 °F - 51.1 °F 100% 29.82 in 10.0 mi Calm Calm - N/A   Partly Cloudy
11:54 AM 53.1 °F - 52.0 °F 96% 29.78 in 10.0 mi Calm Calm - N/A   Clear
12:54 PM 54.0 °F - 52.0 °F 93% 29.75 in 10.0 mi SW 3.5 mph - N/A   Clear
1:39 PM 53.6 °F - 51.8 °F 94% 29.74 in 10.0 mi South 8.1 mph - N/A   Partly Cloudy
1:54 PM 54.0 °F - 52.0 °F 93% 29.74 in 10.0 mi SSW 6.9 mph - N/A   Scattered Clouds
2:54 PM 54.0 °F - 51.1 °F 90% 29.72 in 10.0 mi South 3.5 mph - N/A   Clear
3:20 PM 53.6 °F - 51.8 °F 94% 29.70 in 10.0 mi SSE 8.1 mph - N/A   Partly Cloudy
3:36 PM 53.6 °F - 51.8 °F 94% 29.72 in 10.0 mi South 8.1 mph - N/A   Mostly Cloudy
3:54 PM 53.1 °F - 51.1 °F 93% 29.70 in 10.0 mi South 11.5 mph - N/A   Overcast
4:54 PM 53.1 °F - 51.1 °F 93% 29.70 in 10.0 mi South 8.1 mph - N/A   Overcast
7:54 PM 53.1 °F - 53.1 °F 100% 29.62 in 4.0 mi South 5.8 mph - 0.01 in Rain Light Rain
8:54 PM 53.1 °F - 53.1 °F 100% 29.62 in 5.0 mi SW 6.9 mph - 0.01 in   Overcast
9:39 PM 53.6 °F - 53.6 °F 100% 29.62 in 7.0 mi SSW 6.9 mph - N/A   Overcast
9:54 PM 53.1 °F - 53.1 °F 100% 29.61 in 6.0 mi SSW 8.1 mph - N/A   Overcast
10:23 PM 53.6 °F - 53.6 °F 100% 29.63 in 8.0 mi WSW 3.5 mph - N/A   Overcast
10:31 PM 53.6 °F - 53.6 °F 100% 29.62 in 9.0 mi SSW 5.8 mph - N/A   Overcast
10:42 PM 51.8 °F - 51.8 °F 100% 29.62 in 8.0 mi SSW 6.9 mph - N/A   Mostly Cloudy
10:54 PM 52.0 °F - 52.0 °F 100% 29.60 in 9.0 mi SSW 5.8 mph - N/A   Scattered Clouds
11:54 PM 51.1 °F - 51.1 °F 100% 29.62 in 9.0 mi SW 4.6 mph - N/A   Clear